Wind_Speed
30 30 29 28 23 20 19 18 18 19 19 19 18 17 15 15 13 11 8 6 4 3 4 6 7 8 10 11 11 11 11 11 11 11 11 12 11 10 10 11 13 13 13 13 14 13 14 14 15 15 15 15 16 16 17 16 15 13 13 13 11 10 9 9 10 8 8 7 3 3 7 7 7 8 7 8 8 7 6 6 5 6 6 7 8
30 32 30 29 25 21 20 20 20 20 20 20 19 17 16 15 14 11 9 6 4 3 3 5 7 7 8 9 10 9 9 9 10 11 11 12 12 12 12 12 12 13 13 13 13 13 13 13 14 15 15 15 16 17 18 17 15 14 14 13 12 11 11 11 10 6 5 6 4 1 3 5 7 8 8 8 8 7 7 7 7 7 7 8 8
30 32 29 29 28 24 22 22 22 23 23 22 20 18 17 16 14 12 9 7 5 3 3 4 5 6 6 7 8 9 9 10 11 11 11 12 13 13 14 14 13 12 12 12 13 13 13 13 14 15 15 16 16 18 18 17 15 14 14 13 11 10 11 12 11 8 7 8 7 4 2 4 7 8 8 8 8 8 8 9 8 8 8 8 8
25 25 24 25 26 24 22 24 25 24 24 23 21 19 19 17 15 13 11 9 7 4 3 4 4 5 6 7 9 10 11 12 11 11 11 11 12 13 14 17 17 15 14 14 13 13 13 13 14 15 16 16 17 18 17 15 15 15 14 13 9 8 13 15 13 12 11 9 7 5 3 5 7 9 9 8 9 9 9 10 10 9 9 9 10
18 19 20 21 21 21 22 23 25 25 24 23 22 21 20 18 16 14 12 10 9 6 4 4 4 5 7 9 10 11 12 12 12 13 12 12 11 11 13 15 18 18 17 16 14 14 13 13 14 16 17 16 16 18 17 15 16 17 15 13 7 8 15 19 17 14 10 7 6 3 2 6 9 10 11 10 10 11 10 10 10 10 10 10 11
12 13 17 20 21 21 23 24 25 26 25 24 23 22 20 19 17 15 13 11 10 7 6 5 5 6 7 9 10 11 11 10 12 13 13 13 12 11 12 13 15 16 16 16 15 14 13 12 13 16 16 15 17 19 19 18 18 18 15 12 7 9 15 20 18 14 10 7 7 5 2 4 7 8 9 10 10 11 11 11 11 11 10 11 12
13 12 15 19 22 24 25 27 27 28 27 25 25 23 21 20 19 16 14 13 11 10 9 7 6 5 6 6 7 8 8 9 10 11 12 12 12 12 12 13 15 16 16 16 15 14 13 12 12 13 15 17 19 20 20 20 21 20 16 12 10 10 15 18 17 13 11 10 8 7 5 4 6 8 8 9 9 10 10 10 11 11 11 13 14
16 15 16 20 24 26 26 29 30 29 28 26 26 25 23 22 21 18 15 14 13 12 11 9 6 4 3 4 5 7 8 9 10 10 10 10 11 12 13 14 15 16 16 15 14 13 13 13 12 12 14 18 20 20 20 20 20 19 16 12 11 11 13 17 17 14 13 12 10 9 8 8 8 9 10 12 12 12 12 13 13 14 15 16 16
19 19 20 24 27 28 28 30 31 32 31 29 28 27 25 24 22 19 17 16 14 13 12 10 6 3 2 2 4 6 8 9 10 10 10 10 10 11 12 13 15 16 15 13 12 10 11 13 14 14 14 17 18 19 19 18 18 18 17 13 12 13 14 16 17 17 16 14 13 13 12 13 13 12 13 15 15 15 15 16 17 18 19 19 19
22 22 23 27 29 29 28 30 31 33 32 30 29 28 27 25 23 19 18 17 16 15 13 10 7 4 2 2 4 6 8 10 11 11 12 12 11 11 11 12 13 13 13 11 10 10 11 13 15 15 15 15 17 19 19 18 18 19 17 14 13 14 17 18 18 19 18 18 18 18 17 16 16 15 16 16 17 19 19 20 21 21 22 23 24
25 25 26 28 30 29 29 29 30 32 31 28 28 29 27 25 24 22 20 18 17 16 13 11 9 7 5 4 5 6 8 10 11 12 13 14 14 14 13 13 13 12 12 12 12 12 12 14 15 16 16 17 17 20 21 20 20 20 19 16 15 15 17 18 18 18 18 18 20 21 22 21 20 19 19 19 20 21 21 22 24 24 24 25 26
28 29 29 29 30 29 29 29 30 31 29 26 27 29 29 26 26 25 23 20 19 17 14 13 11 9 7 6 7 8 9 10 12 13 14 15 16 17 15 15 15 15 15 15 14 14 15 16 17 16 17 17 17 19 20 22 23 23 22 20 19 18 19 20 19 19 18 19 19 20 21 22 22 21 20 20 20 19 20 21 22 23 24 25 26
26 29 31 30 30 30 29 29 31 31 29 27 27 30 31 29 29 28 25 22 20 18 16 15 13 11 9 8 9 11 12 12 13 13 14 15 17 18 18 18 17 17 17 16 15 15 15 14 14 15 16 17 18 18 20 21 23 24 24 24 23 23 23 23 22 22 22 22 22 21 20 21 21 21 21 22 22 22 22 23 24 25 26 27 28
23 27 30 30 30 29 28 29 30 29 29 29 29 30 31 32 31 28 25 22 20 19 18 16 15 13 11 10 11 13 14 14 14 14 15 16 17 18 20 20 19 18 18 17 16 15 13 11 11 13 15 17 18 19 19 20 21 21 22 23 24 25 25 25 25 24 24 24 23 23 22 23 22 22 24 25 25 26 26 27 28 29 30 32 33
20 23 28 30 30 28 28 30 30 30 30 31 30 29 32 33 31 27 24 22 21 21 20 18 16 14 13 11 12 15 16 15 15 15 16 16 17 18 19 19 19 19 18 17 17 16 14 11 10 12 13 15 16 17 17 18 19 20 22 23 24 24 25 25 25 24 24 25 24 24 24 25 25 25 26 27 28 29 30 31 32 33 34 36 37
15 17 21 24 26 27 28 30 32 32 32 33 31 30 32 32 29 27 25 24 24 23 21 19 16 14 13 12 12 15 17 16 15 15 16 16 17 18 18 19 19 19 17 16 17 17 16 14 13 13 13 14 14 14 14 14 15 17 19 21 23 24 24 24 24 25 25 25 26 26 26 27 28 28 29 30 31 32 33 35 35 36 38 40 41
10 13 17 20 22 25 27 29 31 31 32 34 32 31 33 33 29 28 27 26 25 23 21 19 17 15 14 13 13 16 17 16 16 15 15 15 16 17 18 18 19 19 18 18 18 17 16 15 15 15 14 14 14 14 14 14 15 15 16 18 20 21 23 24 25 26 27 27 28 28 29 30 31 32 32 33 34 35 36 38 38 39 41 44 45
7 10 15 20 22 23 24 27 28 28 31 34 32 32 35 35 30 29 27 26 25 23 23 21 19 17 16 15 15 17 18 17 16 16 16 15 16 16 17 16 16 17 17 18 18 17 16 15 15 16 16 16 17 17 17 17 18 18 19 19 20 22 23 25 26 27 28 29 30 31 33 34 34 35 36 36 37 38 40 41 41 43 45 47 48
8 9 13 18 21 23 25 27 29 30 31 32 31 33 36 34 30 28 27 26 26 26 26 25 22 20 19 18 18 19 19 18 16 16 16 16 15 16 16 16 16 15 15 16 16 15 14 14 15 16 16 17 17 18 19 20 21 22 22 23 24 25 26 27 28 29 30 31 33 34 35 36 38 38 39 40 40 41 43 44 45 46 48 49 50
7 9 10 14 20 26 29 28 29 33 32 30 33 37 36 32 29 28 28 28 30 31 31 29 25 22 21 21 20 21 20 19 17 16 16 16 15 16 16 17 17 16 16 16 16 16 16 16 16 17 17 18 19 20 21 22 23 24 25 26 27 28 29 30 31 33 34 34 35 37 38 39 40 41 42 42 43 43 44 45 46 47 49 50 51
5 6 7 10 16 24 26 26 32 36 35 32 36 36 32 30 29 29 30 32 33 34 33 30 27 25 24 24 24 24 22 20 17 15 15 15 15 15 16 17 18 18 18 18 18 18 18 19 20 20 21 22 23 24 25 26 27 28 29 30 31 32 33 34 35 36 37 38 39 39 40 41 42 42 43 43 43 44 45 46 47 49 50 51 52
4 4 6 10 14 19 21 21 27 33 34 35 37 35 32 33 33 32 33 33 33 32 31 28 28 28 28 27 27 26 24 21 18 16 15 14 14 15 16 17 19 19 19 19 19 20 21 22 22 23 24 24 25 26 27 28 29 30 32 32 34 35 35 36 37 38 39 40 41 41 42 43 43 44 45 45 46 47 48 49 50 51 52 53 53
2 4 6 10 13 16 19 20 21 25 27 30 33 34 34 35 35 32 29 28 28 28 27 28 29 30 29 28 27 26 24 21 19 18 17 17 16 16 16 16 17 18 19 19 19 20 21 22 23 24 24 25 25 26 27 29 30 31 32 33 34 35 36 37 38 39 40 41 43 44 45 45 46 47 48 48 49 48 48 48 48 49 50 51 51
1 1 2 5 8 10 13 15 17 18 18 19 21 25 28 29 29 26 24 24 26 26 26 26 27 27 26 25 24 23 21 19 18 19 19 19 19 18 17 17 17 18 19 21 21 21 22 23 23 24 25 26 27 28 29 30 31 31 32 33 34 35 35 36 37 38 39 41 42 43 43 44 44 45 46 46 46 45 44 44 44 45 45 46 46
4 4 4 3 3 3 5 7 9 11 11 12 13 15 18 21 22 21 21 22 23 23 23 22 21 21 22 21 20 18 16 16 18 19 21 21 20 19 19 18 18 19 19 20 21 22 23 23 23 24 25 26 28 29 29 30 31 32 33 34 34 35 36 36 37 38 39 40 40 40 40 40 40 41 41 42 42 41 41 40 40 40 41 42 43
2 3 4 5 5 5 4 4 3 4 4 5 6 7 10 13 16 17 18 19 19 19 18 18 18 19 19 19 17 15 15 16 19 20 20 19 18 18 17 17 17 17 18 19 20 21 22 23 23 24 25 26 27 28 29 30 31 32 33 34 34 35 36 36 37 38 39 39 38 38 38 37 37 38 39 39 39 39 39 39 39 38 39 39 40
1 2 2 2 3 3 4 4 3 3 3 4 4 5 6 7 9 11 12 13 14 14 14 14 14 16 16 15 14 13 14 16 18 18 17 16 16 16 16 16 16 16 17 18 19 20 22 23 24 25 26 27 28 28 29 30 30 31 32 32 33 33 33 34 34 35 35 35 34 35 35 35 35 36 37 37 38 38 37 37 37 36 36 36 37
4 5 6 5 3 3 2 3 3 2 2 1 1 2 3 4 5 6 7 8 9 9 9 8 8 9 10 10 10 11 12 14 15 14 14 14 14 14 14 15 15 16 17 18 19 21 22 23 25 26 27 28 28 28 28 29 29 30 30 30 30 30 30 31 32 32 32 32 33 33 34 34 34 34 35 36 36 37 37 37 37 37 36 36 37
7 7 6 6 6 5 4 4 4 4 3 3 2 2 1 0 1 1 2 3 3 4 4 4 5 5 6 6 7 7 8 9 10 10 11 11 12 13 14 15 16 17 19 20 21 22 23 24 25 26 26 26 26 26 26 27 27 27 27 27 27 28 28 29 30 31 31 31 32 32 32 33 33 34 34 35 36 37 38 39 39 39 39 39 39
7 7 6 6 5 4 4 4 3 3 3 3 3 3 3 2 2 1 1 2 3 3 3 4 5 5 4 5 6 6 6 7 9 10 11 13 14 15 16 17 19 20 21 21 22 22 22 23 23 23 23 23 23 24 24 24 24 24 25 26 27 27 28 29 29 29 29 29 30 30 31 32 33 33 34 35 35 35 36 37 38 38 38 39 39
8 8 7 7 6 5 4 3 2 3 3 3 3 3 3 3 3 3 3 4 4 4 5 6 6 6 6 7 8 8 9 10 11 12 13 15 16 16 17 18 19 20 21 21 21 20 19 20 20 20 20 20 21 21 22 22 23 24 25 25 26 26 26 25 25 25 26 27 28 29 30 31 32 32 33 33 33 33 33 34 35 35 36 36 37
9 9 9 9 8 7 6 5 5 5 5 6 5 5 4 5 6 6 6 7 7 7 8 8 9 9 10 10 11 12 12 13 14 14 15 15 16 17 17 18 18 19 19 19 17 17 17 17 17 18 18 19 20 20 21 22 22 23 23 22 22 22 21 21 22 23 25 26 27 28 28 29 30 30 30 31 31 31 31 32 32 33 34 35 35
8 9 10 11 11 10 8 6 6 7 7 7 6 6 7 8 8 8 9 10 10 11 11 11 12 12 13 14 14 15 15 15 15 15 15 15 15 15 15 16 17 16 16 15 15 15 15 16 17 17 18 19 19 20 20 20 20 20 19 18 18 18 19 20 21 23 24 25 25 26 26 27 27 27 28 28 29 29 29 30 31 32 33 35 37
10 10 11 12 13 12 9 7 7 7 8 7 7 7 8 9 9 9 10 11 12 12 12 13 13 13 13 14 14 14 14 14 13 13 13 13 12 12 13 13 13 13 12 12 13 14 14 15 16 17 17 18 18 18 17 17 17 16 16 16 16 17 18 20 21 22 23 23 23 23 24 24 25 25 26 26 27 28 28 29 30 31 32 34 35
10 10 10 11 12 11 10 9 8 8 8 9 8 8 9 10 10 10 11 11 11 11 11 11 11 11 12 12 12 12 12 12 11 11 11 11 10 10 11 11 11 11 11 12 13 14 14 15 15 16 16 16 15 15 15 15 15 15 15 15 16 17 19 20 21 22 22 22 22 23 23 24 24 25 26 26 27 28 29 29 30 31 31 31 30
9 8 8 10 11 11 11 10 9 9 9 9 8 8 10 11 10 10 10 10 9 9 9 9 9 10 12 12 11 10 10 10 11 11 10 10 10 10 10 10 10 10 10 11 12 12 13 14 14 14 14 14 14 14 14 14 15 15 15 16 17 18 19 20 21 21 22 21 22 22 23 23 24 25 26 26 27 28 29 29 30 29 28 27 24
8 8 8 7 8 10 10 9 9 10 10 9 9 9 10 11 11 10 10 9 8 8 7 6 6 9 11 11 10 9 9 9 10 10 9 9 9 9 9 10 9 9 10 11 11 11 11 12 13 13 13 13 13 14 14 14 15 15 16 16 17 18 19 19 20 20 21 21 21 22 22 23 24 24 24 24 25 25 26 26 26 25 24 23 20
6 6 6 6 7 8 8 7 8 10 10 10 10 11 10 11 11 10 9 9 10 8 6 6 7 9 10 9 8 8 8 8 9 9 9 9 9 9 9 9 9 9 9 9 10 10 10 11 12 12 12 13 13 14 15 15 15 16 16 16 17 17 18 19 19 20 20 21 21 22 23 23 24 24 24 23 23 23 23 23 23 22 20 18 16
5 4 4 4 5 7 7 7 9 10 10 10 10 11 10 11 11 9 7 8 10 9 7 6 8 9 9 9 9 9 8 8 9 9 9 9 9 8 8 8 8 8 8 8 8 8 9 9 10 11 12 13 14 14 15 15 15 15 15 15 16 17 17 18 19 19 20 21 22 23 24 25 25 25 24 23 22 22 22 21 21 20 18 14 12
4 5 4 3 4 6 7 9 10 11 11 10 9 9 9 10 11 9 7 8 9 9 8 8 9 10 10 10 10 10 9 9 9 9 9 8 8 8 8 7 7 7 7 7 7 8 9 10 10 11 12 13 13 14 13 13 13 13 14 14 15 16 17 18 19 20 21 22 23 23 24 25 25 25 24 23 23 22 21 19 18 17 16 13 11
4 4 3 3 5 7 8 9 10 11 11 11 9 9 9 9 9 9 8 9 10 11 10 10 11 11 11 11 10 9 8 9 9 9 8 8 8 8 7 6 6 6 6 7 7 8 9 10 11 11 12 12 11 11 12 12 12 13 13 14 14 16 17 19 20 22 22 23 24 24 24 25 24 24 23 22 22 22 21 18 16 15 14 12 10
3 2 2 4 7 9 10 10 10 10 10 9 9 10 10 9 8 9 10 10 11 11 10 10 11 11 11 10 9 8 8 9 9 9 8 7 7 7 6 6 6 6 6 7 8 9 9 10 10 10 10 10 10 11 11 12 12 13 14 15 16 17 18 19 21 22 22 23 24 24 23 23 23 22 21 20 19 19 19 16 14 12 12 11 10
1 2 4 5 7 10 11 11 11 10 10 9 8 8 9 8 8 9 10 10 10 10 9 9 10 10 10 9 9 9 9 9 8 7 6 6 5 5 5 5 6 6 7 8 8 9 9 9 9 9 9 10 10 11 12 12 12 13 14 16 17 18 20 21 21 21 21 21 22 22 22 21 21 20 19 17 16 16 15 14 12 11 11 10 9
1 3 4 4 6 9 12 12 11 10 9 8 7 6 7 7 7 7 8 9 9 9 9 9 10 10 10 9 9 9 9 8 7 6 5 4 4 4 4 5 6 6 7 7 8 8 9 9 9 9 10 10 11 12 12 13 14 14 15 16 18 19 20 20 20 20 20 20 19 19 19 18 17 16 15 14 14 13 12 12 11 10 9 8 8
1 3 3 3 5 10 13 13 12 11 10 8 7 6 5 5 6 7 8 8 8 8 8 8 9 10 10 9 9 8 7 6 5 4 4 4 4 4 4 5 6 6 7 7 8 8 9 9 10 10 11 11 11 12 13 14 15 15 16 17 17 18 19 19 19 19 18 18 18 17 16 15 14 12 11 11 12 11 11 11 10 10 9 8 8
2 3 3 3 6 10 13 13 13 12 11 8 6 6 5 5 6 7 8 8 8 8 8 8 8 9 9 8 8 7 6 5 4 4 3 3 3 4 4 5 6 7 7 8 9 9 10 11 11 11 12 12 12 13 14 15 15 16 16 16 16 17 17 17 17 17 17 16 15 14 14 14 13 11 10 10 10 11 11 10 10 9 8 8 7
5 5 6 6 6 9 12 13 13 13 11 8 5 6 7 6 6 7 8 9 9 7 7 8 8 8 8 8 7 6 5 4 3 3 3 3 3 4 5 5 6 7 8 8 9 10 10 11 12 13 14 14 15 15 15 15 16 16 16 15 15 15 15 15 15 14 14 13 13 12 12 13 13 13 12 11 10 10 11 10 9 8 7 6 6
7 7 8 8 8 9 12 14 14 14 12 9 6 7 7 7 7 7 8 9 9 8 7 8 8 7 7 7 5 4 4 3 3 3 3 3 4 4 4 5 5 6 7 8 8 9 10 11 11 13 14 15 15 15 15 15 15 14 14 14 13 13 12 12 12 11 11 11 11 11 11 12 13 13 13 12 11 11 10 10 9 8 7 6 5
7 7 9 10 11 11 12 14 15 15 14 12 9 7 8 8 7 7 7 8 8 8 7 7 7 6 6 5 4 4 3 3 3 3 4 4 3 3 3 3 4 4 6 6 7 8 9 9 10 11 12 13 13 13 13 12 12 12 11 11 10 10 9 9 9 9 9 10 10 10 10 11 12 12 12 12 12 11 10 10 9 8 8 7 6
7 8 11 13 12 10 10 12 13 14 14 13 11 9 9 8 7 7 7 7 7 7 7 6 6 5 5 4 4 3 3 3 3 3 3 2 1 1 1 2 3 4 5 6 6 7 8 8 9 9 10 10 10 10 10 10 9 9 8 8 8 8 7 7 7 7 8 8 9 9 10 10 11 11 11 11 11 11 11 10 9 8 8 7 6
9 10 12 13 12 10 9 10 12 13 13 13 11 10 9 8 7 7 7 7 7 7 7 6 5 5 4 4 3 3 3 3 3 3 2 1 0 1 1 2 3 4 5 6 6 7 7 7 7 8 8 8 8 8 8 7 7 6 6 6 6 6 6 6 6 7 7 7 8 8 9 9 10 10 10 10 10 10 10 9 8 8 8 7 6
Wind_Direction
221 213 198 188 190 192 195 200 201 201 197 193 194 191 184 182 183 181 181 184 196 213 225 226 223 215 208 206 204 200 201 207 208 198 190 191 192 191 192 194 195 194 191 192 195 195 197 198 196 197 198 196 197 198 195 195 201 207 209 213 215 210 208 236 269 293 308 325 345 220 228 222 210 213 208 203 211 220 222 227 235 247 258 263 266
219 213 201 188 188 194 198 201 203 203 198 198 200 194 186 187 187 186 183 184 190 205 222 227 225 218 211 205 198 193 193 200 209 206 195 191 191 189 191 196 200 198 189 187 191 195 198 197 192 192 194 191 189 190 191 197 201 203 206 206 207 205 207 224 246 267 299 317 329 277 253 248 235 227 216 208 214 228 238 241 244 252 261 265 266
217 209 202 191 188 192 199 204 205 205 202 202 202 195 189 192 193 190 189 189 192 196 217 232 229 218 209 198 189 186 190 196 204 210 205 195 192 189 187 192 198 200 196 192 190 190 193 194 191 194 195 188 184 184 188 197 201 197 198 204 212 214 213 225 235 235 256 287 296 300 280 251 244 238 231 226 225 229 237 249 254 254 258 265 271
216 207 208 204 194 190 198 207 207 206 207 205 203 198 193 195 198 196 193 193 197 197 208 230 231 217 201 194 190 188 193 196 197 206 210 204 199 193 188 189 189 191 196 197 193 190 192 191 190 192 192 186 182 184 189 195 195 192 193 198 209 223 224 233 236 226 236 270 291 295 263 230 224 221 225 237 242 237 232 238 246 250 259 272 282
219 211 215 217 210 198 198 209 211 210 213 210 205 202 198 197 200 198 193 197 203 200 204 224 223 210 202 199 198 197 198 197 194 199 206 207 205 198 192 191 188 188 193 193 193 195 192 188 187 187 187 186 183 183 188 191 188 194 198 189 197 244 234 231 233 222 221 255 282 278 226 224 227 218 215 224 237 243 244 247 252 259 267 278 285
244 230 220 217 220 214 203 207 213 213 214 214 210 206 203 202 203 200 195 201 207 202 203 214 213 214 214 208 204 204 203 199 198 202 205 204 202 198 197 196 192 193 195 194 196 199 194 185 184 186 182 180 184 186 186 186 186 197 201 179 184 247 233 223 229 224 205 216 254 267 235 227 243 238 229 231 238 242 247 256 264 269 271 271 271
253 247 234 222 227 228 214 208 212 213 213 214 213 210 207 206 207 204 199 203 207 203 202 210 214 221 226 218 210 209 207 204 205 209 211 208 203 201 203 204 203 202 202 200 198 199 197 189 185 191 184 176 183 188 187 188 190 198 200 178 174 219 229 228 235 235 216 212 236 266 277 260 257 257 256 260 264 263 266 271 274 276 276 273 271
234 231 232 226 230 237 228 215 211 212 213 214 213 212 210 209 210 207 202 204 205 206 208 214 219 226 225 209 202 203 202 203 207 211 213 211 208 207 210 213 215 215 214 207 195 188 192 191 187 192 187 179 183 187 190 194 196 199 204 195 182 200 227 236 241 245 242 236 241 252 257 259 263 263 262 265 270 276 281 284 284 284 283 283 283
226 224 227 225 225 233 234 224 215 213 214 212 212 213 211 211 212 209 204 205 206 211 217 219 216 213 201 182 193 198 196 197 204 210 214 212 208 208 213 217 220 223 223 213 197 186 184 185 187 189 187 184 184 188 194 201 203 205 210 208 199 200 208 217 227 239 246 247 248 247 244 249 258 262 264 271 279 282 282 283 286 287 287 288 292
229 229 229 228 228 229 228 226 223 219 214 208 209 213 212 212 213 211 208 207 208 214 220 221 213 199 181 192 211 215 208 202 201 205 212 212 206 202 208 214 217 223 228 220 209 205 192 184 187 189 188 187 186 189 197 204 209 214 216 215 214 213 210 210 218 231 239 242 244 248 247 248 253 256 256 261 268 271 272 275 277 280 282 285 290
240 238 236 235 236 231 223 223 227 226 220 210 206 210 213 214 213 213 212 210 211 218 220 218 215 208 206 220 231 236 231 218 208 204 207 209 206 201 201 205 207 212 222 222 214 213 204 191 191 193 193 192 188 189 196 202 209 218 222 222 226 226 226 228 229 232 236 239 243 249 251 250 252 255 253 253 255 258 258 260 264 270 274 277 283
245 243 241 240 241 239 230 226 228 230 226 216 206 206 211 215 214 215 216 214 217 222 219 217 222 227 237 245 242 242 241 231 219 211 209 208 207 204 200 201 203 204 213 218 214 214 211 201 197 199 200 199 197 196 198 201 206 214 220 223 228 232 235 240 243 241 239 243 248 252 253 251 251 255 257 258 261 262 260 259 261 265 268 270 274
248 244 243 241 240 242 241 237 234 232 227 218 210 207 209 213 215 217 217 217 222 224 219 220 228 239 252 256 243 237 238 234 225 217 215 213 208 204 201 203 207 209 214 218 217 218 218 210 206 208 208 207 207 207 209 209 210 213 218 221 224 228 232 236 240 242 242 245 249 251 251 250 249 252 256 259 261 263 263 264 265 267 269 270 272
251 246 245 243 240 238 239 239 237 233 227 221 215 211 209 213 217 218 217 219 223 223 221 225 233 244 258 260 243 230 229 230 225 216 215 215 211 207 205 206 212 217 220 222 222 221 220 214 211 215 218 218 217 216 218 220 221 222 224 226 227 229 231 233 236 240 243 247 248 249 250 252 252 254 258 261 264 265 267 268 270 273 275 276 278
254 248 245 244 242 237 235 235 233 231 227 222 219 216 212 212 215 216 216 218 219 219 222 229 237 249 262 264 245 229 226 227 223 216 213 214 212 210 207 207 213 218 219 222 226 226 222 215 209 212 216 220 223 224 225 226 228 230 232 234 236 236 238 240 242 245 248 251 253 254 255 258 260 261 263 265 267 269 271 272 273 274 276 277 278
264 257 249 247 244 237 234 235 233 230 226 222 222 221 214 209 211 214 214 214 216 220 226 232 241 252 263 263 245 228 223 223 221 215 213 212 211 211 209 207 211 214 213 215 222 227 227 223 217 215 215 217 220 225 227 229 232 235 237 240 243 246 247 249 250 252 254 256 258 259 261 263 265 266 267 268 269 270 271 272 273 275 277 277 278
273 262 251 248 245 237 231 232 232 230 228 227 227 221 212 207 207 210 212 216 219 224 228 232 242 252 256 254 239 224 220 220 217 213 213 211 209 210 212 211 213 214 211 209 213 219 225 227 226 226 227 228 231 233 235 238 241 243 244 245 247 250 252 253 254 256 258 260 262 263 264 265 266 267 267 268 268 269 270 271 273 275 276 277 278
258 240 221 217 226 231 228 230 235 232 227 227 224 215 209 208 205 205 211 217 221 224 227 231 239 246 246 242 234 223 220 218 214 209 210 210 210 212 214 214 217 220 218 216 216 219 227 233 234 235 237 239 243 248 250 252 254 254 254 254 254 254 254 255 257 258 260 262 263 265 266 267 268 268 268 269 270 271 272 273 275 275 275 276 277
254 239 210 202 215 223 219 223 233 233 226 225 221 211 205 205 204 205 211 218 222 224 227 232 237 239 239 239 233 225 221 218 215 211 210 211 212 215 216 215 217 221 223 226 226 227 232 238 240 241 243 246 250 254 256 258 259 260 260 261 262 262 262 261 261 261 261 263 264 265 267 269 270 271 272 273 274 275 275 277 277 277 277 277 277
266 254 232 217 217 211 197 190 199 210 216 216 211 204 200 201 204 208 214 221 226 228 230 233 235 234 235 236 230 223 219 217 217 216 216 216 217 220 222 222 222 223 225 227 230 232 234 237 240 243 246 250 253 256 258 260 261 262 263 263 263 264 264 264 264 264 264 264 264 266 267 269 270 272 273 274 275 276 277 277 277 277 277 277 278
301 279 249 229 217 206 192 174 174 189 203 203 196 196 200 205 210 215 221 227 231 232 233 234 232 230 230 228 222 218 215 213 214 216 219 220 222 225 228 231 232 232 232 231 233 235 238 240 242 244 246 249 252 255 258 260 262 263 265 265 265 266 266 266 266 267 267 267 267 268 268 269 270 271 272 273 274 275 275 275 275 275 275 276 277
304 275 245 230 219 214 213 199 185 191 201 201 197 200 206 211 215 219 224 227 228 229 229 228 225 223 221 217 213 212 211 210 210 215 220 223 225 227 231 236 239 241 241 241 240 240 242 244 245 247 249 251 253 255 258 260 263 265 267 268 269 270 270 271 271 272 272 273 273 272 272 272 272 273 273 274 275 276 277 278 278 278 278 278 278
270 245 230 226 224 223 227 222 207 200 203 203 203 207 210 213 216 218 220 221 221 223 226 226 224 221 215 209 206 206 206 207 209 216 223 228 230 231 233 238 243 247 249 250 249 248 247 249 252 254 256 258 260 262 263 264 266 268 270 271 272 272 273 274 275 275 275 276 276 276 276 276 277 278 279 279 280 281 281 281 280 279 279 279 279
73 193 207 216 225 229 232 232 226 222 222 220 217 216 215 216 218 220 223 225 225 224 225 224 221 216 210 206 205 205 205 205 210 219 228 233 237 239 240 242 246 247 247 248 249 250 252 255 259 262 264 266 267 268 269 270 272 274 275 277 277 278 278 277 278 278 278 278 279 279 281 282 283 284 284 285 285 285 284 283 282 281 280 279 279
93 90 102 121 148 188 214 223 225 229 236 237 233 230 228 228 229 229 227 226 223 220 217 213 209 206 205 206 206 208 208 209 216 226 232 235 237 238 237 240 243 245 246 248 251 254 256 258 260 263 266 268 270 272 274 276 278 280 281 282 282 283 284 284 284 284 285 285 286 287 288 288 287 287 286 286 286 285 284 282 281 280 279 278 277
121 102 99 106 110 114 122 131 150 174 186 194 203 211 217 220 221 218 215 213 213 212 211 209 207 206 206 206 204 203 204 210 218 226 228 228 229 230 231 234 239 243 248 251 255 258 261 263 264 266 268 270 273 277 279 281 282 282 283 283 284 285 285 286 286 286 287 288 289 289 289 288 287 287 287 286 286 286 286 285 284 283 282 281 281
17 44 40 60 91 101 105 107 107 112 123 134 146 160 175 186 192 194 195 198 201 203 204 205 207 206 204 200 196 194 198 205 213 218 220 223 226 230 234 238 242 246 251 254 257 260 263 266 269 270 272 275 277 278 280 280 281 282 282 283 284 284 284 285 285 286 287 288 289 289 289 289 289 289 289 290 290 290 290 290 289 288 288 287 286
2 16 15 14 20 32 55 71 69 62 62 76 113 146 169 181 183 182 182 185 191 194 196 198 203 209 211 208 203 202 206 212 218 222 226 231 236 241 246 249 251 254 257 259 261 263 265 267 270 272 274 276 277 278 279 279 279 279 280 282 283 284 285 287 288 290 291 292 293 293 293 294 294 295 295 295 296 296 296 296 295 294 294 293 291
359 6 9 8 11 17 24 30 35 36 32 23 19 20 23 219 221 219 216 215 216 212 208 213 218 222 228 231 228 223 222 227 235 242 245 248 251 254 256 258 259 260 261 262 263 264 265 267 270 272 274 275 276 277 278 278 279 281 283 285 287 289 291 293 294 295 296 296 297 297 298 298 298 298 298 298 299 299 298 298 298 297 296 295 293
336 338 344 347 350 358 6 8 6 4 4 2 360 360 360 356 347 320 288 275 270 264 259 256 254 251 249 251 253 255 253 249 250 253 255 255 255 255 255 256 258 260 261 262 263 265 266 268 270 272 273 274 275 276 277 280 284 287 289 292 294 295 296 296 297 298 298 299 300 300 300 300 300 300 300 299 299 299 298 297 297 296 295 294 293
314 314 316 318 317 318 319 314 303 299 299 297 302 311 314 309 303 296 286 278 267 263 261 261 263 265 264 262 261 260 259 256 254 253 254 255 256 258 259 260 261 263 265 267 268 269 270 271 271 272 273 275 277 280 284 287 289 291 293 294 295 296 297 299 300 301 301 302 303 303 302 302 301 301 301 300 299 299 298 297 297 297 296 296 294
299 300 298 296 295 294 295 298 299 291 278 272 275 274 266 263 263 263 266 266 264 262 262 262 264 265 263 263 263 261 260 260 258 257 256 257 259 260 262 263 265 266 268 269 270 271 272 273 276 278 280 283 286 288 290 291 292 292 293 295 296 298 300 301 302 302 303 303 303 303 302 302 302 302 303 303 303 303 303 303 303 302 301 299 297
278 279 281 284 285 286 289 293 290 285 279 274 270 264 257 253 249 245 246 249 251 252 252 252 253 255 255 254 254 254 254 254 254 254 254 254 254 256 257 259 262 264 266 269 272 274 276 280 283 285 286 288 289 290 290 291 292 293 295 297 299 300 301 302 304 305 306 306 306 306 307 307 308 310 310 310 310 310 309 308 307 305 304 303 302
266 267 271 277 282 286 288 284 273 269 271 269 261 256 255 254 252 251 250 248 247 248 250 249 248 247 247 247 247 246 245 245 245 247 248 248 249 251 252 255 258 262 267 273 277 280 282 284 284 285 286 287 288 289 290 291 293 297 299 300 302 304 306 309 311 312 313 314 314 314 315 315 315 316 315 315 314 312 310 308 306 306 308 311 310
274 272 270 271 275 277 277 274 269 263 262 262 259 256 256 256 254 254 254 255 253 250 248 247 248 246 244 243 242 242 243 245 247 248 250 252 253 255 256 259 263 268 274 277 280 281 283 283 283 284 285 287 289 291 294 297 299 302 303 304 307 311 314 317 319 320 320 320 320 320 320 320 320 320 319 319 318 315 313 311 310 312 318 321 317
291 281 265 259 263 266 265 265 265 263 260 260 259 259 262 265 263 256 253 254 254 252 250 247 245 244 241 239 240 244 246 250 252 253 256 259 261 262 264 268 272 276 278 278 279 280 281 282 284 287 290 294 297 298 300 302 304 305 307 309 313 318 321 323 324 323 322 322 322 323 325 326 326 326 324 322 320 317 315 314 316 320 327 329 323
293 281 269 258 257 262 264 266 268 265 259 252 249 252 259 266 269 268 264 259 252 249 247 239 236 240 240 237 237 241 241 245 252 258 261 264 267 271 275 278 281 282 280 279 281 283 284 287 291 295 298 301 302 303 304 306 308 310 313 316 318 321 322 323 323 322 322 323 326 328 330 331 332 332 330 324 319 316 315 317 321 326 332 335 331
281 271 269 266 264 267 271 270 264 259 253 247 248 253 256 260 266 271 275 274 267 256 236 206 209 232 244 245 243 242 241 245 255 264 267 268 269 272 276 278 281 281 281 285 288 289 291 294 297 300 303 304 305 307 309 311 313 314 314 315 316 318 320 322 324 325 326 328 330 331 332 332 333 335 335 330 322 317 316 321 326 330 335 341 341
262 251 254 263 269 275 280 274 266 265 261 252 249 252 255 257 259 260 262 269 270 265 251 228 221 229 240 246 249 250 250 250 253 257 261 264 266 268 269 271 277 282 286 291 295 297 300 303 303 305 307 307 308 310 309 309 309 309 309 312 315 319 324 327 329 330 330 330 331 331 331 331 331 334 336 334 328 321 318 322 329 333 335 340 344
239 244 253 265 273 278 282 280 276 275 271 261 252 250 250 252 256 257 253 252 255 254 252 250 247 244 244 246 247 247 246 245 245 247 250 253 257 261 264 267 275 284 292 299 306 308 310 310 310 310 309 307 306 304 302 301 302 304 310 316 321 326 330 332 331 330 329 328 328 327 327 328 329 331 334 334 331 325 322 323 331 337 338 337 340
215 248 267 290 301 304 304 301 292 282 274 268 258 247 241 241 250 256 253 250 251 252 250 249 250 250 250 251 252 247 240 238 239 241 241 242 246 252 260 269 282 293 302 309 314 316 315 314 312 309 305 301 299 298 298 302 307 313 319 324 329 332 333 331 329 327 325 324 324 324 324 324 325 328 331 332 330 328 326 327 332 339 343 343 343
205 268 289 301 306 308 313 316 311 298 284 271 256 244 239 236 238 245 250 251 252 253 253 251 250 250 249 248 247 242 234 231 233 235 238 240 246 253 265 280 293 303 311 316 317 317 316 314 310 305 300 298 298 301 307 314 320 325 328 330 331 332 331 328 327 325 324 322 322 322 321 322 323 326 330 332 331 331 331 331 332 336 341 345 346
189 265 273 292 305 309 314 320 320 311 297 281 264 247 238 233 230 236 245 251 252 253 253 251 249 249 246 239 235 233 230 227 226 228 233 239 248 260 275 290 301 309 315 317 318 317 315 312 309 305 302 304 308 312 318 324 328 330 331 331 330 329 328 327 326 326 325 324 323 322 322 323 325 328 331 334 337 337 337 337 338 338 338 341 345
235 256 262 290 312 314 318 324 328 325 312 293 277 258 242 238 238 240 245 251 255 256 254 247 242 242 239 232 227 227 227 224 222 225 231 241 255 270 283 294 304 312 316 317 318 317 315 313 312 310 311 315 319 322 324 326 328 329 328 328 327 326 325 325 325 326 326 325 325 324 325 326 330 333 336 341 346 350 349 349 349 348 347 348 349
296 260 257 289 310 312 319 326 331 331 324 304 283 268 257 255 256 256 257 260 261 259 254 245 238 235 233 228 223 221 220 218 220 226 235 248 263 278 288 298 306 312 314 316 317 316 315 314 315 316 318 320 322 323 322 321 322 322 321 322 323 322 322 322 324 325 326 326 328 329 330 332 337 342 346 349 354 359 2 3 1 358 359 2 1
297 294 297 314 316 315 319 321 322 325 329 321 292 271 267 268 269 273 275 272 265 256 249 243 236 232 230 227 223 219 218 217 220 231 246 259 272 285 295 304 310 313 314 316 318 317 318 318 319 319 318 318 317 316 315 314 314 314 315 317 319 319 320 321 324 326 327 329 332 335 338 342 347 353 357 357 356 359 5 9 7 3 2 5 7
276 295 310 315 313 310 310 310 313 322 332 331 297 270 268 272 275 279 280 274 264 253 242 238 236 232 228 225 223 219 220 225 230 242 257 269 281 294 302 308 312 314 316 317 318 318 318 317 317 315 313 312 311 310 310 310 309 310 312 315 318 319 321 323 326 328 331 335 339 344 349 351 354 358 360 358 356 356 360 5 7 7 5 6 10
282 292 301 304 304 303 303 305 310 318 326 327 304 274 271 278 282 285 283 275 265 252 238 232 230 226 223 222 221 217 218 225 228 236 253 265 274 287 298 305 310 313 314 315 316 316 316 315 314 312 310 309 309 309 309 309 309 310 313 317 318 320 323 327 329 333 339 345 349 353 356 357 358 359 359 358 358 358 359 1 3 6 10 12 16
292 292 287 285 286 290 296 300 303 307 314 319 309 282 275 281 289 291 287 277 266 256 243 232 226 222 218 214 211 210 215 222 220 224 240 257 269 283 299 313 322 325 324 325 327 329 328 326 323 321 318 317 316 315 313 313 314 315 316 318 319 321 326 331 335 340 348 355 358 360 1 3 3 2 0 359 359 1 3 4 3 3 8 13 16
284 280 278 281 285 290 297 299 296 294 300 308 305 288 278 282 291 294 292 284 274 263 252 238 226 219 213 207 208 216 221 220 208 202 212 234 260 303 337 348 355 353 347 345 345 345 343 339 336 334 333 330 329 327 324 322 321 321 320 321 322 326 331 337 343 350 356 1 2 2 4 6 7 4 2 1 0 1 5 8 6 4 6 9 10
277 272 275 282 289 296 299 294 285 282 288 297 299 289 279 281 290 295 294 291 284 271 260 249 234 222 216 213 214 215 213 205 192 175 172 185 215 33 19 11 10 7 3 359 354 351 350 347 343 343 344 342 340 338 334 329 328 330 330 329 330 335 342 349 353 356 359 2 2 1 2 4 4 3 3 3 2 2 6 8 7 6 7 4 359
Height
3106 3106 3107 3107 3108 3110 3112 3114 3115 3116 3118 3119 3119 3120 3121 3122 3124 3125 3127 3128 3129 3130 3130 3131 3131 3132 3133 3134 3135 3136 3138 3138 3140 3142 3144 3145 3146 3146 3146 3146 3147 3148 3149 3150 3151 3152 3153 3155 3155 3156 3157 3159 3160 3161 3163 3164 3165 3166 3166 3167 3167 3167 3167 3168 3168 3168 3168 3169 3171 3172 3172 3172 3173 3173 3174 3175 3175 3176 3176 3177 3177 3177 3177 3178 3178
3103 3105 3106 3106 3107 3110 3112 3113 3115 3115 3116 3117 3118 3119 3120 3121 3122 3124 3125 3127 3128 3129 3129 3130 3130 3131 3132 3133 3134 3135 3136 3137 3137 3139 3142 3143 3145 3145 3146 3145 3146 3147 3148 3150 3151 3152 3152 3153 3154 3155 3155 3157 3158 3160 3161 3162 3164 3165 3165 3166 3166 3166 3166 3167 3168 3168 3168 3169 3170 3171 3171 3172 3172 3173 3174 3174 3175 3175 3175 3175 3176 3176 3176 3176 3176
3100 3103 3107 3107 3106 3108 3111 3113 3114 3115 3116 3117 3117 3118 3118 3119 3120 3122 3124 3125 3127 3128 3128 3129 3129 3130 3131 3132 3133 3134 3135 3136 3136 3137 3139 3141 3143 3145 3145 3145 3145 3145 3147 3148 3150 3151 3151 3152 3153 3153 3154 3156 3157 3158 3160 3161 3163 3164 3165 3165 3166 3165 3165 3167 3168 3168 3168 3168 3169 3170 3170 3171 3172 3172 3173 3173 3174 3175 3175 3174 3175 3175 3175 3175 3175
3099 3104 3109 3110 3108 3107 3110 3113 3114 3115 3116 3117 3118 3118 3118 3118 3119 3120 3122 3124 3125 3126 3127 3128 3128 3129 3130 3131 3132 3133 3134 3135 3136 3136 3137 3139 3141 3143 3144 3145 3145 3145 3145 3146 3148 3149 3150 3151 3152 3153 3154 3155 3156 3157 3158 3160 3161 3163 3164 3165 3165 3164 3164 3165 3167 3167 3167 3167 3168 3169 3169 3170 3171 3172 3172 3172 3173 3173 3174 3174 3174 3174 3174 3173 3173
3102 3105 3109 3112 3111 3107 3108 3112 3114 3115 3116 3117 3118 3118 3118 3118 3118 3119 3121 3122 3124 3125 3126 3127 3128 3128 3129 3130 3131 3132 3133 3134 3135 3136 3137 3137 3139 3140 3142 3143 3144 3144 3145 3146 3147 3147 3149 3149 3150 3151 3152 3154 3155 3156 3157 3159 3160 3161 3163 3163 3163 3163 3163 3164 3165 3166 3167 3166 3166 3167 3168 3168 3170 3171 3172 3172 3171 3172 3172 3173 3173 3173 3173 3172 3172
3102 3104 3106 3109 3110 3106 3105 3108 3112 3113 3114 3116 3117 3117 3117 3117 3117 3118 3119 3121 3122 3124 3125 3126 3127 3127 3128 3129 3130 3131 3132 3134 3135 3135 3136 3137 3138 3139 3139 3140 3142 3143 3144 3145 3146 3147 3148 3148 3149 3150 3151 3153 3154 3155 3156 3157 3158 3160 3161 3161 3162 3162 3162 3162 3164 3166 3166 3166 3165 3165 3167 3167 3168 3169 3170 3170 3170 3170 3170 3171 3171 3171 3171 3171 3171
3100 3102 3104 3105 3106 3106 3104 3104 3107 3110 3112 3114 3115 3115 3115 3116 3116 3117 3118 3119 3121 3123 3124 3125 3126 3127 3127 3128 3129 3130 3131 3133 3134 3135 3136 3137 3138 3138 3139 3139 3140 3141 3142 3143 3144 3145 3146 3147 3148 3149 3151 3152 3153 3154 3155 3156 3157 3158 3159 3159 3161 3162 3162 3162 3163 3164 3165 3165 3165 3164 3165 3166 3166 3167 3167 3168 3168 3168 3168 3168 3168 3168 3168 3169 3169
3097 3099 3101 3102 3103 3105 3105 3102 3103 3106 3109 3111 3113 3113 3113 3114 3115 3116 3117 3118 3120 3121 3122 3124 3125 3126 3126 3128 3129 3129 3130 3132 3133 3134 3135 3137 3138 3138 3138 3138 3139 3139 3140 3142 3143 3145 3145 3146 3147 3148 3150 3151 3151 3153 3154 3155 3155 3156 3157 3158 3160 3161 3161 3161 3162 3162 3163 3164 3164 3164 3164 3165 3165 3165 3165 3165 3166 3166 3166 3165 3165 3166 3165 3165 3166
3094 3096 3097 3098 3098 3100 3102 3102 3101 3102 3105 3108 3110 3111 3111 3112 3114 3115 3116 3118 3118 3119 3121 3123 3124 3125 3126 3127 3127 3128 3129 3131 3132 3133 3134 3135 3136 3137 3137 3137 3137 3138 3139 3140 3142 3143 3144 3145 3146 3148 3149 3149 3150 3152 3153 3154 3154 3155 3156 3157 3158 3160 3160 3161 3161 3161 3161 3162 3163 3163 3163 3164 3164 3164 3164 3163 3163 3164 3164 3163 3163 3163 3163 3162 3162
3091 3092 3093 3094 3094 3095 3098 3100 3101 3100 3101 3105 3107 3109 3109 3110 3112 3114 3115 3116 3117 3117 3120 3122 3123 3124 3125 3125 3126 3126 3128 3129 3131 3132 3133 3134 3135 3136 3137 3137 3137 3137 3138 3139 3141 3141 3142 3144 3145 3146 3147 3148 3149 3151 3152 3152 3153 3155 3156 3156 3157 3158 3159 3160 3160 3160 3161 3161 3161 3162 3162 3163 3163 3163 3163 3163 3162 3162 3162 3161 3161 3160 3160 3159 3158
3088 3089 3090 3090 3090 3091 3093 3096 3098 3098 3099 3102 3104 3105 3107 3108 3110 3111 3113 3114 3115 3116 3119 3121 3122 3123 3124 3125 3125 3126 3127 3128 3129 3130 3131 3132 3133 3134 3136 3136 3136 3136 3137 3137 3139 3140 3141 3142 3143 3145 3146 3147 3148 3149 3150 3151 3152 3153 3155 3155 3156 3157 3158 3158 3159 3160 3160 3161 3161 3161 3161 3162 3162 3161 3162 3162 3162 3162 3161 3160 3160 3159 3159 3157 3157
3084 3085 3086 3086 3087 3089 3091 3092 3092 3094 3096 3099 3100 3101 3103 3105 3107 3108 3110 3112 3114 3116 3118 3119 3120 3122 3123 3124 3125 3125 3125 3126 3127 3128 3129 3130 3131 3133 3134 3135 3135 3135 3135 3136 3137 3138 3139 3141 3142 3144 3145 3146 3147 3148 3149 3150 3151 3152 3153 3154 3155 3155 3156 3156 3157 3158 3159 3160 3160 3160 3160 3160 3161 3160 3160 3160 3160 3160 3159 3159 3158 3158 3157 3156 3155
3080 3081 3082 3083 3084 3086 3089 3089 3089 3090 3093 3096 3096 3097 3099 3102 3104 3105 3108 3111 3113 3114 3116 3117 3119 3120 3121 3122 3123 3124 3124 3125 3125 3126 3127 3128 3129 3131 3132 3133 3133 3134 3134 3135 3136 3137 3138 3140 3142 3143 3144 3144 3145 3146 3147 3148 3149 3150 3151 3151 3152 3153 3153 3153 3154 3154 3155 3156 3157 3157 3157 3157 3158 3158 3157 3156 3156 3156 3156 3155 3155 3154 3153 3152 3152
3076 3077 3077 3079 3080 3082 3084 3085 3086 3087 3090 3092 3093 3094 3096 3098 3101 3104 3106 3109 3111 3112 3114 3115 3117 3118 3120 3120 3121 3122 3122 3123 3123 3124 3125 3126 3127 3129 3130 3131 3132 3132 3133 3133 3135 3136 3138 3140 3140 3141 3141 3142 3143 3144 3145 3146 3147 3149 3149 3149 3150 3150 3150 3150 3151 3151 3152 3153 3153 3154 3154 3153 3154 3154 3153 3153 3153 3152 3152 3151 3151 3150 3149 3148 3147
3073 3073 3074 3076 3077 3079 3080 3082 3083 3084 3086 3088 3090 3092 3093 3095 3098 3102 3105 3107 3109 3110 3111 3113 3115 3116 3117 3118 3119 3119 3120 3121 3122 3122 3123 3124 3125 3126 3127 3129 3129 3130 3131 3132 3133 3134 3136 3137 3138 3139 3139 3140 3141 3142 3143 3144 3145 3146 3147 3147 3147 3147 3148 3148 3149 3150 3150 3151 3151 3152 3152 3151 3151 3151 3151 3150 3149 3149 3148 3147 3147 3146 3145 3144 3143
3070 3070 3071 3073 3075 3076 3077 3078 3080 3081 3083 3084 3086 3089 3091 3093 3096 3100 3102 3104 3105 3107 3109 3111 3112 3113 3114 3116 3116 3117 3118 3119 3119 3120 3121 3122 3123 3124 3125 3126 3126 3127 3128 3130 3130 3131 3133 3134 3136 3137 3137 3138 3139 3140 3141 3142 3142 3143 3143 3144 3144 3144 3145 3146 3146 3147 3147 3148 3148 3148 3148 3148 3148 3147 3147 3147 3146 3145 3144 3143 3142 3142 3140 3138 3137
3069 3069 3069 3070 3071 3073 3074 3075 3077 3078 3079 3081 3083 3086 3088 3090 3093 3096 3099 3101 3103 3105 3107 3108 3109 3111 3112 3113 3114 3115 3115 3116 3117 3118 3119 3120 3121 3121 3122 3123 3124 3125 3127 3128 3129 3129 3131 3132 3134 3134 3135 3135 3136 3137 3138 3139 3140 3140 3141 3141 3141 3141 3142 3142 3142 3143 3143 3143 3144 3144 3144 3144 3143 3143 3143 3142 3141 3140 3139 3138 3138 3137 3135 3132 3131
3069 3069 3068 3067 3068 3071 3072 3073 3075 3076 3077 3078 3080 3083 3086 3088 3090 3093 3096 3098 3100 3102 3104 3105 3106 3108 3109 3111 3112 3113 3113 3114 3115 3116 3117 3118 3119 3119 3120 3121 3122 3124 3125 3126 3127 3128 3129 3131 3132 3132 3133 3133 3134 3135 3136 3136 3137 3137 3138 3138 3138 3138 3139 3139 3139 3139 3139 3139 3139 3139 3138 3138 3138 3138 3137 3137 3136 3135 3134 3133 3133 3131 3129 3126 3125
3069 3069 3069 3068 3068 3069 3070 3071 3072 3073 3075 3077 3079 3081 3085 3087 3088 3090 3093 3095 3097 3099 3100 3102 3103 3105 3106 3108 3109 3110 3111 3112 3113 3114 3115 3115 3116 3117 3118 3119 3120 3121 3123 3124 3125 3127 3128 3129 3130 3130 3131 3132 3132 3133 3133 3133 3134 3134 3134 3135 3135 3135 3135 3135 3135 3135 3135 3134 3134 3134 3133 3133 3133 3132 3131 3131 3130 3129 3128 3126 3125 3124 3121 3120 3119
3068 3068 3069 3069 3069 3068 3067 3068 3068 3069 3072 3076 3078 3080 3083 3084 3085 3087 3089 3091 3093 3095 3096 3098 3100 3102 3103 3105 3106 3107 3108 3109 3110 3112 3113 3114 3114 3115 3115 3116 3117 3118 3120 3121 3123 3124 3125 3126 3127 3128 3128 3129 3129 3129 3130 3130 3130 3130 3130 3131 3131 3131 3131 3131 3130 3130 3130 3130 3130 3129 3128 3128 3127 3126 3125 3125 3124 3123 3121 3120 3119 3116 3114 3113 3112
3068 3068 3068 3069 3069 3069 3068 3067 3066 3066 3069 3073 3075 3077 3080 3081 3082 3084 3086 3088 3089 3091 3093 3095 3097 3098 3100 3101 3103 3104 3105 3106 3108 3109 3110 3112 3112 3113 3113 3113 3114 3115 3117 3119 3120 3121 3122 3123 3123 3124 3125 3125 3125 3126 3126 3126 3126 3126 3126 3126 3126 3126 3126 3126 3125 3125 3125 3124 3124 3123 3123 3122 3121 3120 3119 3118 3117 3116 3115 3113 3112 3110 3108 3107 3105
3069 3069 3069 3069 3069 3070 3069 3069 3067 3067 3069 3072 3073 3075 3076 3078 3079 3081 3083 3085 3086 3088 3090 3092 3093 3094 3095 3097 3098 3100 3102 3103 3105 3106 3108 3109 3110 3111 3111 3111 3111 3112 3114 3115 3117 3118 3118 3118 3119 3120 3120 3121 3121 3121 3121 3121 3121 3121 3121 3121 3121 3120 3120 3120 3120 3119 3119 3118 3118 3117 3116 3115 3114 3113 3112 3111 3110 3109 3108 3106 3105 3103 3101 3100 3098
3069 3069 3069 3069 3069 3069 3070 3070 3070 3070 3070 3071 3072 3073 3074 3076 3078 3079 3081 3082 3084 3085 3087 3088 3089 3090 3091 3092 3094 3096 3098 3099 3101 3103 3105 3106 3107 3108 3109 3109 3109 3109 3110 3111 3113 3114 3114 3114 3115 3115 3116 3116 3116 3117 3117 3117 3117 3117 3116 3116 3116 3115 3115 3115 3114 3114 3113 3112 3111 3110 3109 3108 3108 3107 3106 3104 3103 3102 3101 3100 3098 3096 3094 3092 3091
3070 3070 3069 3069 3069 3069 3069 3069 3070 3070 3071 3071 3072 3072 3074 3075 3077 3078 3079 3080 3081 3082 3083 3085 3086 3087 3088 3090 3091 3093 3094 3096 3098 3100 3101 3103 3104 3105 3106 3107 3107 3107 3107 3108 3109 3110 3111 3111 3111 3111 3111 3111 3112 3112 3112 3112 3112 3112 3111 3111 3110 3110 3110 3109 3109 3108 3107 3106 3105 3104 3103 3103 3102 3100 3098 3097 3095 3095 3094 3093 3091 3088 3086 3085 3083
3072 3071 3071 3070 3070 3069 3069 3069 3070 3070 3070 3070 3071 3072 3073 3074 3075 3077 3078 3079 3079 3080 3081 3082 3083 3085 3086 3088 3090 3090 3091 3093 3095 3096 3098 3099 3101 3102 3103 3104 3104 3104 3104 3104 3105 3105 3106 3107 3107 3107 3107 3107 3107 3107 3107 3107 3107 3107 3106 3106 3105 3105 3104 3103 3102 3101 3100 3100 3099 3098 3097 3096 3095 3093 3091 3089 3088 3087 3086 3085 3083 3081 3079 3077 3075
3072 3072 3072 3071 3071 3070 3070 3070 3070 3071 3071 3071 3071 3072 3073 3074 3075 3076 3077 3077 3078 3079 3080 3081 3082 3084 3085 3087 3087 3087 3088 3090 3091 3092 3094 3096 3097 3098 3099 3100 3101 3101 3101 3102 3102 3102 3102 3102 3103 3103 3103 3103 3103 3104 3103 3103 3103 3102 3101 3101 3100 3100 3099 3098 3097 3096 3095 3094 3093 3092 3091 3090 3088 3087 3085 3083 3081 3080 3079 3077 3076 3074 3072 3070 3068
3073 3073 3072 3072 3071 3071 3071 3071 3071 3072 3072 3072 3073 3073 3074 3075 3075 3076 3076 3076 3077 3078 3079 3080 3081 3082 3083 3084 3084 3085 3085 3086 3087 3089 3091 3092 3094 3095 3096 3097 3098 3098 3099 3099 3099 3099 3099 3099 3099 3099 3099 3100 3100 3100 3099 3099 3098 3097 3096 3096 3095 3095 3094 3093 3092 3091 3090 3089 3089 3087 3086 3084 3083 3081 3079 3077 3075 3074 3072 3071 3069 3067 3065 3063 3062
3074 3073 3073 3072 3072 3071 3071 3071 3072 3072 3072 3073 3073 3074 3075 3075 3076 3076 3076 3076 3077 3078 3078 3079 3080 3080 3081 3082 3083 3083 3084 3085 3086 3087 3089 3090 3091 3092 3093 3094 3094 3095 3095 3096 3096 3096 3096 3096 3096 3096 3095 3095 3095 3095 3095 3094 3093 3092 3092 3091 3091 3090 3089 3088 3087 3086 3085 3084 3083 3082 3080 3079 3077 3076 3074 3072 3070 3068 3066 3064 3063 3061 3060 3058 3056
3074 3074 3073 3073 3072 3072 3072 3071 3072 3072 3072 3073 3073 3074 3074 3075 3075 3075 3075 3075 3076 3076 3077 3077 3078 3079 3080 3081 3081 3082 3083 3084 3085 3086 3087 3088 3089 3089 3090 3090 3091 3092 3092 3092 3093 3093 3093 3093 3092 3092 3092 3092 3092 3091 3090 3089 3089 3088 3088 3087 3086 3086 3085 3084 3083 3082 3081 3079 3078 3077 3075 3074 3072 3070 3069 3067 3065 3062 3060 3058 3057 3055 3054 3052 3051
3074 3074 3074 3073 3073 3073 3073 3073 3072 3072 3073 3073 3073 3073 3074 3074 3075 3075 3075 3075 3075 3076 3076 3076 3077 3078 3079 3079 3080 3081 3082 3083 3084 3084 3085 3086 3086 3087 3087 3088 3088 3088 3089 3089 3089 3089 3090 3089 3089 3089 3089 3088 3088 3087 3087 3086 3085 3085 3084 3083 3082 3082 3081 3080 3079 3078 3076 3075 3074 3072 3071 3069 3067 3066 3064 3062 3061 3059 3056 3054 3052 3050 3049 3047 3045
3074 3073 3073 3073 3073 3073 3072 3073 3073 3073 3073 3073 3073 3073 3074 3074 3074 3074 3074 3075 3075 3075 3075 3076 3076 3077 3077 3078 3079 3080 3080 3081 3082 3083 3083 3083 3084 3084 3084 3085 3085 3085 3085 3086 3086 3086 3086 3086 3086 3086 3085 3085 3084 3084 3083 3083 3082 3081 3080 3079 3079 3078 3077 3076 3075 3074 3072 3071 3070 3068 3066 3065 3063 3061 3060 3058 3056 3054 3052 3050 3048 3046 3044 3042 3040
3072 3072 3072 3071 3071 3072 3072 3072 3072 3072 3072 3072 3073 3073 3073 3073 3073 3073 3073 3073 3073 3074 3074 3074 3075 3075 3076 3076 3077 3078 3078 3079 3079 3080 3080 3081 3081 3081 3081 3082 3082 3082 3082 3083 3083 3083 3083 3082 3082 3082 3082 3081 3081 3080 3080 3079 3078 3078 3077 3076 3075 3075 3074 3073 3071 3070 3069 3068 3066 3064 3063 3061 3059 3057 3055 3053 3051 3049 3047 3045 3043 3041 3039 3037 3035
3071 3070 3070 3070 3070 3070 3071 3071 3071 3071 3071 3071 3072 3072 3072 3072 3072 3072 3072 3072 3072 3072 3073 3073 3074 3074 3074 3075 3075 3076 3076 3077 3077 3077 3078 3078 3079 3079 3079 3079 3079 3080 3080 3080 3080 3080 3079 3079 3079 3078 3078 3078 3077 3077 3077 3076 3075 3075 3074 3073 3072 3072 3071 3070 3068 3067 3066 3064 3063 3061 3059 3057 3055 3053 3051 3049 3047 3045 3043 3041 3039 3037 3034 3032 3029
3069 3068 3068 3068 3068 3068 3069 3070 3069 3069 3069 3069 3070 3070 3070 3070 3070 3070 3070 3070 3071 3071 3071 3072 3072 3073 3073 3073 3073 3074 3074 3074 3075 3075 3076 3076 3077 3077 3077 3077 3077 3077 3077 3077 3077 3077 3076 3076 3076 3076 3076 3075 3075 3074 3073 3073 3072 3072 3071 3070 3070 3069 3068 3067 3065 3064 3062 3061 3059 3057 3055 3053 3052 3050 3048 3046 3044 3042 3039 3037 3035 3033 3030 3026 3022
3067 3067 3067 3066 3066 3066 3067 3067 3067 3067 3067 3067 3068 3068 3068 3068 3068 3069 3068 3068 3069 3069 3069 3070 3070 3071 3071 3071 3071 3071 3072 3072 3073 3073 3073 3074 3074 3074 3074 3074 3074 3074 3074 3074 3074 3074 3074 3074 3074 3073 3073 3073 3072 3071 3070 3070 3069 3069 3068 3068 3067 3066 3065 3063 3062 3060 3059 3057 3055 3054 3052 3050 3049 3047 3044 3042 3040 3037 3035 3033 3030 3028 3024 3021 3017
3065 3065 3065 3064 3064 3064 3065 3065 3065 3065 3065 3066 3066 3066 3066 3066 3066 3067 3067 3067 3067 3067 3067 3068 3068 3068 3068 3069 3069 3070 3070 3070 3070 3070 3071 3071 3071 3071 3071 3071 3072 3072 3072 3072 3072 3072 3071 3071 3071 3070 3070 3070 3069 3068 3068 3067 3067 3066 3065 3065 3064 3062 3061 3060 3059 3057 3056 3054 3053 3051 3049 3047 3045 3043 3041 3038 3036 3034 3031 3029 3026 3023 3020 3017 3014
3064 3063 3063 3063 3062 3062 3063 3063 3064 3064 3064 3064 3064 3064 3064 3064 3064 3064 3065 3065 3065 3066 3066 3067 3066 3066 3066 3067 3068 3068 3068 3068 3068 3068 3068 3069 3068 3068 3068 3069 3069 3069 3069 3069 3069 3069 3069 3068 3068 3067 3067 3067 3066 3066 3065 3065 3064 3063 3062 3061 3060 3059 3058 3058 3057 3055 3054 3052 3050 3048 3046 3044 3042 3040 3038 3036 3033 3031 3029 3026 3023 3021 3018 3015 3013
3063 3062 3062 3062 3061 3061 3062 3062 3062 3062 3062 3063 3062 3062 3063 3063 3063 3063 3063 3063 3063 3064 3065 3065 3064 3064 3064 3065 3065 3066 3066 3066 3066 3066 3066 3066 3066 3066 3067 3067 3067 3067 3067 3067 3067 3067 3066 3066 3066 3065 3065 3064 3064 3063 3062 3062 3061 3060 3060 3059 3058 3058 3057 3055 3054 3052 3051 3049 3047 3045 3044 3042 3040 3038 3035 3033 3031 3029 3027 3024 3022 3019 3016 3014 3012
3062 3062 3062 3062 3061 3061 3061 3061 3061 3060 3061 3061 3062 3062 3062 3061 3061 3062 3062 3061 3061 3061 3062 3063 3063 3062 3062 3063 3063 3064 3064 3064 3065 3064 3064 3064 3065 3065 3065 3065 3065 3065 3065 3065 3065 3064 3064 3064 3063 3063 3062 3062 3061 3061 3060 3060 3060 3059 3059 3058 3057 3056 3054 3053 3051 3050 3048 3046 3045 3043 3041 3039 3037 3035 3033 3031 3029 3027 3025 3022 3020 3017 3015 3013 3011
3061 3061 3061 3061 3061 3060 3060 3060 3060 3060 3060 3060 3061 3061 3061 3060 3060 3060 3061 3061 3060 3059 3060 3061 3061 3061 3061 3061 3061 3062 3063 3063 3063 3063 3063 3063 3063 3063 3064 3064 3064 3063 3063 3063 3063 3062 3062 3062 3061 3061 3060 3060 3060 3059 3059 3059 3059 3058 3057 3056 3054 3053 3051 3050 3049 3047 3046 3044 3043 3041 3039 3037 3035 3033 3031 3029 3026 3024 3022 3021 3019 3016 3014 3012 3010
3060 3060 3060 3060 3060 3060 3059 3059 3059 3059 3059 3059 3060 3060 3059 3059 3059 3059 3059 3059 3058 3058 3058 3059 3059 3059 3059 3059 3060 3061 3061 3061 3061 3061 3062 3062 3062 3062 3062 3062 3062 3062 3061 3061 3061 3060 3060 3060 3060 3059 3059 3059 3059 3059 3058 3057 3057 3056 3055 3053 3052 3051 3049 3048 3046 3045 3044 3042 3040 3039 3037 3035 3033 3031 3029 3027 3024 3022 3020 3019 3017 3015 3013 3012 3010
3059 3059 3060 3060 3059 3059 3059 3058 3058 3058 3057 3058 3058 3058 3058 3058 3058 3057 3057 3057 3057 3057 3057 3057 3057 3057 3058 3058 3058 3059 3059 3059 3060 3060 3060 3060 3060 3060 3060 3060 3060 3060 3060 3060 3059 3059 3059 3059 3059 3058 3058 3058 3057 3057 3056 3055 3054 3053 3052 3051 3049 3048 3047 3046 3045 3043 3042 3040 3038 3037 3035 3033 3031 3029 3027 3025 3023 3021 3019 3017 3016 3014 3013 3011 3009
3058 3059 3059 3059 3058 3058 3058 3058 3057 3057 3056 3056 3056 3056 3057 3057 3056 3056 3056 3055 3055 3055 3055 3055 3055 3055 3056 3056 3057 3057 3057 3058 3058 3058 3059 3059 3059 3059 3059 3059 3059 3059 3059 3058 3058 3058 3058 3058 3057 3057 3056 3056 3055 3054 3053 3053 3052 3051 3049 3048 3047 3046 3045 3044 3043 3041 3040 3039 3037 3035 3033 3031 3030 3027 3025 3024 3022 3020 3018 3017 3015 3014 3012 3011 3009
3057 3058 3058 3057 3057 3056 3056 3056 3056 3056 3055 3055 3055 3055 3055 3055 3055 3055 3054 3054 3054 3054 3054 3054 3054 3054 3054 3055 3055 3055 3056 3056 3057 3057 3057 3057 3057 3057 3057 3057 3057 3057 3057 3057 3057 3057 3056 3056 3055 3055 3054 3054 3053 3052 3051 3050 3049 3049 3048 3047 3045 3044 3043 3042 3041 3040 3039 3037 3036 3034 3032 3030 3028 3026 3025 3023 3021 3020 3018 3017 3015 3014 3013 3011 3010
3057 3057 3057 3056 3056 3055 3055 3055 3055 3055 3054 3053 3053 3053 3053 3053 3053 3053 3053 3052 3052 3052 3052 3052 3052 3052 3053 3053 3054 3054 3054 3055 3055 3055 3056 3056 3056 3056 3056 3056 3056 3056 3056 3056 3055 3055 3054 3054 3053 3053 3052 3051 3051 3050 3049 3048 3048 3047 3046 3045 3044 3043 3042 3041 3040 3039 3037 3036 3034 3032 3031 3029 3028 3026 3024 3023 3021 3020 3019 3017 3016 3014 3013 3012 3010
3056 3057 3057 3056 3055 3055 3054 3054 3054 3053 3053 3052 3052 3052 3052 3052 3052 3051 3051 3051 3051 3051 3051 3051 3051 3051 3051 3052 3052 3053 3053 3053 3054 3054 3054 3054 3054 3054 3054 3054 3054 3054 3054 3054 3053 3053 3052 3052 3051 3051 3050 3049 3049 3048 3048 3047 3046 3045 3045 3044 3043 3042 3041 3040 3038 3037 3036 3034 3033 3031 3030 3028 3027 3026 3024 3023 3022 3020 3019 3017 3016 3015 3013 3012 3011
3056 3056 3056 3056 3056 3055 3054 3053 3053 3052 3052 3051 3051 3050 3050 3050 3050 3050 3050 3049 3049 3049 3049 3049 3049 3050 3050 3050 3051 3051 3052 3052 3052 3052 3053 3053 3053 3053 3053 3053 3053 3052 3052 3052 3051 3051 3050 3050 3049 3049 3048 3048 3047 3047 3046 3046 3045 3044 3043 3042 3042 3041 3040 3039 3037 3036 3035 3033 3032 3030 3029 3028 3026 3025 3024 3023 3022 3020 3019 3018 3016 3015 3014 3013 3012
3056 3056 3056 3055 3055 3055 3054 3052 3051 3051 3051 3051 3050 3049 3049 3049 3049 3049 3048 3048 3047 3047 3048 3048 3048 3048 3049 3049 3050 3050 3050 3051 3051 3051 3051 3052 3052 3052 3052 3052 3051 3051 3051 3050 3050 3049 3049 3049 3048 3048 3047 3046 3046 3045 3045 3044 3044 3043 3042 3041 3040 3040 3039 3038 3037 3036 3034 3033 3031 3030 3029 3028 3027 3025 3024 3023 3022 3021 3019 3018 3017 3016 3014 3013 3012
3054 3054 3054 3054 3054 3054 3053 3052 3051 3050 3050 3050 3049 3049 3048 3048 3048 3048 3047 3047 3046 3046 3047 3047 3047 3047 3048 3048 3049 3049 3049 3050 3050 3050 3050 3050 3050 3051 3051 3050 3050 3050 3050 3049 3049 3048 3048 3048 3047 3047 3046 3045 3045 3044 3043 3043 3042 3042 3041 3040 3039 3039 3038 3037 3036 3035 3034 3032 3031 3030 3029 3028 3027 3025 3024 3023 3022 3021 3019 3018 3017 3016 3015 3014 3013
3053 3053 3053 3053 3053 3052 3052 3051 3050 3049 3049 3049 3048 3048 3047 3047 3047 3047 3046 3046 3045 3045 3045 3046 3046 3046 3047 3047 3048 3048 3048 3049 3049 3049 3049 3049 3049 3049 3049 3049 3049 3049 3049 3048 3048 3048 3047 3047 3047 3046 3045 3045 3044 3043 3042 3042 3041 3041 3040 3039 3039 3038 3037 3036 3036 3035 3033 3032 3031 3030 3029 3028 3027 3025 3024 3023 3022 3021 3020 3018 3017 3016 3015 3014 3013
3052 3051 3051 3051 3051 3051 3050 3049 3048 3048 3047 3047 3047 3047 3046 3046 3046 3046 3045 3045 3044 3044 3044 3045 3045 3045 3045 3046 3046 3047 3047 3047 3048 3048 3048 3048 3048 3048 3048 3048 3048 3048 3048 3048 3048 3048 3047 3047 3046 3046 3045 3044 3043 3043 3042 3041 3041 3040 3040 3039 3038 3038 3037 3036 3035 3034 3033 3032 3031 3030 3029 3028 3027 3026 3024 3023 3022 3021 3020 3019 3018 3016 3015 3014 3013